TimeEST,TemperatureF,Dew PointF,Humidity,Sea Level PressureIn,VisibilityMPH,Wind Direction,Wind SpeedMPH,Gust SpeedMPH,PrecipitationIn,Events,Conditions,WindDirDegrees,DateUTC
12:53 AM,21.0,16.0,81,30.31,10.0,Calm,Calm,-,N/A,,Clear,0,2012-12-07 05:53:00
1:53 AM,19.9,16.0,85,30.30,10.0,Calm,Calm,-,N/A,,Clear,0,2012-12-07 06:53:00
2:53 AM,19.0,15.1,85,30.28,10.0,Calm,Calm,-,N/A,,Clear,0,2012-12-07 07:53:00
3:53 AM,19.0,15.1,85,30.27,10.0,Calm,Calm,-,N/A,,Clear,0,2012-12-07 08:53:00
4:53 AM,19.9,16.0,85,30.27,10.0,Calm,Calm,-,N/A,,Clear,0,2012-12-07 09:53:00
5:53 AM,23.0,19.0,85,30.25,10.0,Calm,Calm,-,N/A,,Clear,0,2012-12-07 10:53:00
6:53 AM,24.1,19.9,84,30.26,10.0,Calm,Calm,-,N/A,,Clear,0,2012-12-07 11:53:00
7:53 AM,26.1,21.9,84,30.25,10.0,Calm,Calm,-,N/A,,Clear,0,2012-12-07 12:53:00
8:53 AM,28.0,23.0,81,30.24,10.0,Calm,Calm,-,N/A,,Clear,0,2012-12-07 13:53:00
9:53 AM,30.9,26.1,82,30.22,10.0,Calm,Calm,-,N/A,,Clear,0,2012-12-07 14:53:00
10:25 AM,33.8,26.6,75,30.22,10.0,Calm,Calm,-,N/A,,Mostly Cloudy,0,2012-12-07 15:25:00
10:53 AM,35.1,26.1,70,30.21,10.0,Calm,Calm,-,N/A,,Overcast,0,2012-12-07 15:53:00
11:53 AM,37.9,28.0,68,30.19,10.0,Calm,Calm,-,N/A,,Overcast,0,2012-12-07 16:53:00
12:53 PM,41.0,30.9,67,30.16,10.0,SSW,8.1,-,N/A,,Overcast,200,2012-12-07 17:53:00
1:53 PM,42.1,32.0,67,30.13,10.0,SSW,10.4,-,N/A,,Overcast,210,2012-12-07 18:53:00
2:32 PM,41.0,33.8,76,30.12,10.0,SSW,6.9,-,N/A,,Overcast,200,2012-12-07 19:32:00
2:53 PM,41.0,33.1,73,30.12,10.0,SSW,8.1,-,N/A,,Mostly Cloudy,200,2012-12-07 19:53:00
3:53 PM,41.0,34.0,76,30.11,10.0,SSW,4.6,-,N/A,,Overcast,200,2012-12-07 20:53:00
4:53 PM,42.1,34.0,73,30.09,10.0,South,4.6,-,N/A,,Overcast,190,2012-12-07 21:53:00
5:53 PM,42.1,34.0,73,30.09,10.0,SW,3.5,-,N/A,,Overcast,220,2012-12-07 22:53:00
6:17 PM,42.8,33.8,70,30.09,10.0,SW,8.1,-,N/A,,Overcast,220,2012-12-07 23:17:00
6:53 PM,41.0,36.0,82,30.10,10.0,WSW,4.6,-,0.01,Rain,Light Rain,240,2012-12-07 23:53:00
8:53 PM,39.0,37.0,93,30.09,8.0,Calm,Calm,-,0.04,Rain,Light Rain,0,2012-12-08 01:53:00
9:42 PM,37.4,35.6,93,30.07,5.0,Calm,Calm,-,0.00,,Overcast,0,2012-12-08 02:42:00
9:53 PM,37.9,36.0,93,30.07,4.0,Calm,Calm,-,0.00,,Overcast,0,2012-12-08 02:53:00
10:19 PM,37.4,35.6,93,30.06,3.0,Calm,Calm,-,N/A,,Overcast,0,2012-12-08 03:19:00
10:35 PM,37.4,35.6,93,30.06,2.5,Calm,Calm,-,N/A,,Overcast,0,2012-12-08 03:35:00
10:53 PM,37.0,35.1,93,30.06,2.5,Calm,Calm,-,N/A,,Overcast,0,2012-12-08 03:53:00
11:04 PM,35.6,35.6,100,30.06,1.2,Calm,Calm,-,N/A,,Overcast,0,2012-12-08 04:04:00
11:20 PM,35.6,35.6,100,30.06,1.8,Calm,Calm,-,N/A,,Overcast,0,2012-12-08 04:20:00
11:28 PM,35.6,33.8,93,30.05,2.5,Calm,Calm,-,N/A,,Overcast,0,2012-12-08 04:28:00
11:50 PM,35.6,33.8,93,30.05,2.0,Calm,Calm,-,N/A,,Overcast,0,2012-12-08 04:50:00
11:53 PM,36.0,34.0,93,30.05,2.0,Calm,Calm,-,N/A,,Overcast,0,2012-12-08 04:53:00
11:59 PM,35.6,33.8,93,30.05,3.0,Calm,Calm,-,N/A,,Overcast,0,2012-12-08 04:59:00